Location: Unspecified
(44.0704°N, 88.6889°W)
Time: 05:05:16
(UTC+02:00)

Cosmos 1674 - Visible Passes

Search period start: 24 September 2017 00:00
Search period end: 04 October 2017 00:00
Orbit: 498 x 523 km, 82.5° (Epoch: 23 September)

Date Brightness Start Highest point End Pass type
(mag) Time Alt. Az. Time Alt. Az. Time Alt. Az.
24 Sep 3.8 03:11:27 10° NNE 03:14:20 25° ENE 03:14:20 25° ENE visible
24 Sep 5.3 04:47:15 10° NW 04:49:14 19° WNW 04:49:14 19° WNW visible
25 Sep 4.0 02:54:57 10° NNE 02:57:49 21° ENE 02:58:04 21° ENE visible
25 Sep 4.8 04:30:16 10° NNW 04:32:59 25° WNW 04:32:59 25° WNW visible
26 Sep 4.2 02:38:31 10° NNE 02:41:00 17° ENE 02:41:51 16° E visible
26 Sep 4.2 04:13:20 10° NNW 04:16:42 32° W 04:16:47 32° W visible
27 Sep 4.5 02:22:15 10° NE 02:24:10 13° ENE 02:25:44 11° E visible
27 Sep 3.8 03:56:27 10° NNW 04:00:00 42° W 04:00:40 38° WSW visible
28 Sep 3.2 03:39:37 10° NNW 03:43:17 55° W 03:44:38 34° SSW visible
29 Sep 2.8 03:22:49 10° NNW 03:26:33 73° W 03:28:44 23° S visible
30 Sep 2.5 03:06:03 10° N 03:09:49 86° E 03:13:00 14° S visible
01 Oct 2.5 02:49:19 10° N 02:53:03 66° E 02:56:45 10° SSE visible
02 Oct 2.8 02:32:37 10° N 02:36:17 50° E 02:39:54 10° SSE visible
02 Oct 6.0 04:10:25 10° WNW 04:11:23 11° W 04:12:20 10° W visible
03 Oct 3.1 02:15:58 10° N 02:19:30 39° ENE 02:23:00 10° SSE visible
03 Oct 5.8 03:52:46 10° NW 03:54:43 14° W 03:56:40 10° WSW visible
